Weather History for Miles City, MT

Change the Weather History Date:

Monday, December 10, 2012

  Actual Average Record
Temperature  
Mean Temperature 24 °F 21 °F  
Max Temperature 33 °F 32 °F 61 °F (1956)
Min Temperature 14 °F 11 °F -21 °F (2000)
Degree Days  
Heating Degree Days 41 44  
Month to date heating degree days 322 425  
Since 1 July heating degree days 1923 2224  
Cooling Degree Days 0 0  
Month to date cooling degree days 0 0  
Year to date cooling degree days 1107 730  
Moisture  
Dew Point 19 °F    
Average Humidity 71    
Maximum Humidity 81    
Minimum Humidity 60    
Precipitation  
Precipitation 0.00 in 0.01 in 0.08 in (1995)
Month to date precipitation 0.03 0.08  
Year to date precipitation 5.99 12.23  
Sea Level Pressure  
Sea Level Pressure 29.91 in    
Wind  
Wind Speed 11 mph (West)    
Max Wind Speed 26 mph    
Max Gust Speed 36 mph    
Visibility 10 miles    
Events      
T = Trace of Precipitation, MM = Missing Value Source: NWS Daily Summary

Daily Weather History Graph

Daily Weather History Graph

Search for Another Location

Airport:

Trip Planner

Search our weather history database for the weather conditions in past years. The results will help you decide how hot, cold, wet, or windy it might be!

Date:

Astronomy

Dec. 10, 2012 Rise Set
Actual Time 7:36 AM MST 4:16 PM MST
Civil Twilight 7:01 AM MST 4:51 PM MST
Nautical Twilight 6:23 AM MST 5:29 PM MST
Astronomical Twilight 5:47 AM MST 6:06 PM MST
Moon 4:16 AM MST (12/10) 2:13 PM MST (12/10)
Length of Visible Light 9h 49m
Length of Day
8h 39m
Waning Crescent, 10% of the Moon is Illuminated
Dec 10
Waning Crescent
Dec 13
New
Dec 19
First Quarter
Dec 28
Full
Jan 4
Last Quarter

Hourly Weather History & Observations

Time (MST) Temp. Windchill Dew Point Humidity Pressure Visibility Wind Dir Wind Speed Gust Speed Precip Events Conditions
12:53 AM 15.1 °F 3.3 °F 8.1 °F 74% 29.95 in 10.0 mi SSE 9.2 mph - N/A   Overcast
1:53 AM 16.0 °F 7.4 °F 10.0 °F 77% 29.92 in 10.0 mi SSE 5.8 mph - N/A   Overcast
2:53 AM 19.9 °F - 10.0 °F 65% 29.89 in 10.0 mi Calm Calm - N/A   Overcast
3:53 AM 24.1 °F 14.4 °F 12.9 °F 62% 29.86 in 10.0 mi WSW 9.2 mph - N/A   Overcast
4:53 AM 27.0 °F 16.7 °F 16.0 °F 63% 29.87 in 10.0 mi West 11.5 mph - N/A   Overcast
5:53 AM 30.0 °F 18.7 °F 21.0 °F 69% 29.86 in 10.0 mi West 16.1 mph - N/A   Overcast
6:53 AM 28.9 °F 19.2 °F 19.0 °F 67% 29.86 in 10.0 mi West 11.5 mph - N/A   Overcast
7:53 AM 30.0 °F 19.5 °F 21.0 °F 69% 29.86 in 10.0 mi West 13.8 mph - N/A   Overcast
8:53 AM 30.9 °F 19.8 °F 21.9 °F 69% 29.89 in 10.0 mi West 16.1 mph - N/A   Overcast
9:53 AM 32.0 °F 20.5 °F 25.0 °F 75% 29.91 in 10.0 mi West 18.4 mph - N/A   Overcast
10:53 AM 32.0 °F 21.2 °F 25.0 °F 75% 29.94 in 10.0 mi WNW 16.1 mph 24.2 mph N/A   Overcast
11:27 AM 32.0 °F 19.8 °F 23.0 °F 69% 29.83 in 10.0 mi NW 20.7 mph 31.1 mph N/A   Overcast
11:53 AM 32.0 °F 19.5 °F 23.0 °F 69% 29.94 in 10.0 mi NW 21.9 mph 32.2 mph N/A   Overcast
12:53 PM 32.0 °F 20.1 °F 21.0 °F 64% 29.93 in 10.0 mi NW 19.6 mph 28.8 mph N/A   Overcast
1:53 PM 32.0 °F 20.1 °F 21.9 °F 66% 29.94 in 10.0 mi NW 19.6 mph 27.6 mph N/A   Overcast
2:53 PM 33.1 °F 22.6 °F 21.9 °F 64% 29.93 in 10.0 mi WNW 16.1 mph - N/A   Mostly Cloudy
3:53 PM 30.0 °F 21.1 °F 21.0 °F 69% 29.93 in 10.0 mi West 10.4 mph - N/A   Clear
4:53 PM 25.0 °F 15.5 °F 19.0 °F 78% 29.95 in 10.0 mi West 9.2 mph - N/A   Scattered Clouds
5:53 PM 28.0 °F 24.2 °F 19.9 °F 72% 29.94 in 10.0 mi WNW 3.5 mph - N/A   Overcast
6:53 PM 27.0 °F 19.5 °F 21.0 °F 78% 29.94 in 10.0 mi West 6.9 mph - N/A   Overcast
7:53 PM 24.1 °F 15.2 °F 19.0 °F 81% 29.94 in 10.0 mi West 8.1 mph - N/A   Mostly Cloudy
8:53 PM 25.0 °F 15.5 °F 18.0 °F 75% 29.93 in 10.0 mi West 9.2 mph - N/A   Partly Cloudy
9:53 PM 21.9 °F 14.5 °F 16.0 °F 78% 29.93 in 10.0 mi WNW 5.8 mph - N/A   Scattered Clouds
10:53 PM 21.0 °F 11.4 °F 15.1 °F 78% 29.93 in 10.0 mi West 8.1 mph - N/A   Scattered Clouds
11:53 PM 21.0 °F 13.4 °F 16.0 °F 81% 29.93 in 10.0 mi WNW 5.8 mph - N/A   Mostly Cloudy